This demonstration page uses our WeatherBlox Daily Observations layout. Learn more.

Left ArrowRight Arrow

39.29038, -76.61219

Hourly Observations for May 9, 2020

Temp ( °F °C ) Dew Point ( °F °C ) Humidity (%) Winds ( mph kmh ) Pressure ( in mb ) Visibility ( mi km ) Precip ( " mm )
12:54 am 00:54 undefined 41 5 32 undefined 70 70 undefined N/A 29.82 1010 N/A N/A
1:54 am 01:54 undefined 40 4.4 28 -2.2 63 63 undefined N/A 29.85 1011 N/A N/A
2:54 am 02:54 undefined 40 4.4 23 -5 51 51 undefined N/A 29.88 1012 N/A N/A
3:54 am 03:54 undefined 39 3.9 21 -6.1 48 48 undefined N/A 29.91 1013 N/A N/A
4:54 am 04:54 undefined 37 2.8 23 -5 57 57 undefined N/A 29.94 1014 N/A N/A
5:54 am 05:54 undefined 37 2.8 18 -7.8 46 46 undefined N/A 29.96 1014 N/A N/A
6:54 am 06:54 undefined 38 3.3 16 -8.9 41 41 undefined N/A 29.98 1015 N/A N/A
7:54 am 07:54 undefined 39 3.9 14 -10 36 36 undefined N/A 30.03 1017 N/A N/A
8:54 am 08:54 undefined 41 5 14 -10 33 33 undefined N/A 30.05 1018 N/A N/A
9:54 am 09:54 undefined 42 5.6 15 -9.4 33 33 undefined N/A 30.04 1017 N/A N/A
10:54 am 10:54 undefined 45 7.2 18 -7.8 34 34 undefined N/A 30.05 1018 N/A N/A
11:54 am 11:54 undefined 46 7.8 17 -8.3 31 31 undefined N/A 30.06 1018 N/A N/A
12:54 pm 12:54 undefined 47 8.3 17 -8.3 30 30 undefined N/A 30.03 1017 N/A N/A
1:54 pm 13:54 undefined 50 10 19 -7.2 29 29 undefined N/A 30.03 1017 N/A N/A
2:54 pm 14:54 undefined 48 8.9 19 -7.2 32 32 undefined N/A 30.01 1016 N/A N/A
3:54 pm 15:54 undefined 50 10 21 -6.1 32 32 undefined N/A 30.02 1017 N/A N/A
4:54 pm 16:54 undefined 49 9.4 21 -6.1 33 33 undefined N/A 30.03 1017 N/A N/A
5:54 pm 17:54 undefined 48 8.9 19 -7.2 32 32 undefined N/A 30.04 1017 N/A N/A
6:54 pm 18:54 undefined 47 8.3 18 -7.8 31 31 undefined N/A 30.09 1019 N/A N/A
7:54 pm 19:54 undefined 46 7.8 16 -8.9 30 30 undefined N/A 30.12 1020 N/A N/A
8:54 pm 20:54 undefined 45 7.2 17 -8.3 33 33 undefined N/A 30.16 1021 N/A N/A
9:54 pm 21:54 undefined 43 6.1 18 -7.8 37 37 undefined N/A 30.20 1023 N/A N/A
10:54 pm 22:54 undefined 42 5.6 19 -7.2 40 40 undefined N/A 30.20 1023 N/A N/A
11:54 pm 23:54 undefined 40 4.4 21 -6.1 47 47 undefined N/A 30.20 1023 N/A N/A

Powered by AerisWeather